Regional Weather Roundup
Issued by NWS State College, PA

Home | Current Version | Previous Version | Graphics & Text | Print | Product List | Glossary On
Versions: 1 2 3 4 5 6 7 8 9 10 11 12 13 14 15 16 17 18 19 20 21 22 23 24 25 26 27 28 29 30 31 32 33 34 35 36 37 38 39 40 41 42 43 44 45 46 47 48 49 50
000
ASUS41 KCTP 300603
RWRCTP

REGIONAL WEATHER ROUNDUP
NATIONAL WEATHER SERVICE STATE COLLEGE PA
200 AM EDT TUE AUG 30 2016

Note: "fair" indicates few or no clouds below 12,000 feet with no
significant weather and/or obstructions to visibility.

* = STATION THAT DOES NOT REPORT PRECIPITATION /E.G. RAIN...SNOW...ETC/
    THUNDER OR FOG.

PAZ002>004-007>009-013>016-020>023-029>032-300700-
WESTERN PENNSYLVANIA

CITY           SKY/WX    TMP DP  RH WIND       PRES   REMARKS
ERIE           FAIR      63  57  81 S3        30.20F
MEADVILLE      FAIR      60  54  80 CALM      30.23S
FRANKLIN*        N/A     55  50  82 CALM      30.23F
NEW CASTLE     NOT AVBL
BEAVER COUNTY  NOT AVBL
BUTLER*        NOT AVBL
PITTSBURGH INT CLEAR     68  56  65 CALM      30.19F
PITTSBURGH     CLEAR     67  58  72 N5        30.18F
INDIANA*       CLEAR     61  59  94 CALM      30.23S
LATROBE        CLEAR     61  61 100 CALM      30.20F
WASHINGTON CO* CLEAR     59  57  94 CALM      30.20F
$$

PAZ004>006-010>012-017>019-024>028-033>037-041-042-045-046-049>053-300700-
CENTRAL PENNSYLVANIA

CITY           SKY/WX    TMP DP  RH WIND       PRES   REMARKS
BRADFORD       FAIR      56  56 100 CALM      30.24F
DUBOIS         FAIR      63  56  78 NE3       30.22F
CLEARFIELD     NOT AVBL
JOHNSTOWN      CLEAR     66  57  72 CALM      30.23F
ALTOONA        CLEAR     60  60 100 CALM      30.20F
STATE COLLEGE  FAIR      64  61  90 CALM      30.21R
WILLIAMSPORT   FAIR      63  59  87 NW3       30.17F
SELINSGROVE    CLEAR     61  61 100 CALM      30.18F
FT INDIANTOWN  CLEAR     67  59  75 E3        30.15F
CAPITAL CITY   CLEAR     68  61  78 CALM      30.15F
HARRISBURG     CLEAR     70  63  78 N3        30.14F
YORK           CLEAR     62  60  93 CALM      30.15F
$$

PAZ038>040-043-044-047-048-054-055-060>062-067>071-300700-
EASTERN PENNSYLVANIA

CITY           SKY/WX    TMP DP  RH WIND       PRES   REMARKS
SCRANTON       FAIR      61  57  87 E6        30.18F
MOUNT POCONO     N/A     59  53  80 MISG      30.21F
ALLENTOWN      CLEAR     64  58  80 CALM      30.16F
QUAKERTOWN*    CLEAR     63  59  88 CALM      30.17F
READING        CLEAR     68  60  75 CALM      30.15F
LANCASTER      CLEAR     68  62  81 E3        30.14F
COATESVILLE    CLEAR     70  59  68 N6        30.17F
POTTSTOWN      CLEAR     64  60  87 CALM      30.17F
BLUE BELL      CLEAR     63  59  88 CALM      30.14F
DOYLESTOWN     CLEAR     70  61  73 NE3       30.15S
WILLOW GROVE   NOT AVBL
NORTH PHILA    CLEAR     73  60  63 N8        30.14F
PHILADELPHIA   CLEAR     76  58  53 N8        30.12F
$$




USA.gov is the U.S. government's official web portal to all federal, state and local government web resources and services.